Regional Weather Roundup
Issued by NWS Midland/Odessa, TX

Skip options and go directly to product.
Home | Oldest Version | Next Version | Current Version | All | Text Only | Save Text | Print | Product List | Glossary On

Skip product version selection by date and time.   
007
ASUS44 KMAF 221601
RWRMAF
MIDLAND AREA WEATHER ROUNDUP
NATIONAL WEATHER SERVICE MIDLAND TX
1000 AM CST SUN JAN 22 2017

...IN SOUTHWEST TEXAS AND SOUTHEAST NEW MEXICO...

CITY           SKY/WX    TMP DP  RH WIND       PRES   REMARKS
ALPINE         SUNNY     50   7  17 NW21      30.15R
ANDREWS        FAIR      48  24  39 NW18G29   29.99R
ARTESIA        SUNNY     46  21  36 CALM      30.07R
BIG SPRING     MOSUNNY   49  29  46 W22G29    29.98R
CARLSBAD       SUNNY     51  18  27 NW15G21   30.05R
DRYDEN           N/A     56  21  25 W21G28    30.01R
FORT STOCKTON  SUNNY     52  21  29 NW20G35   30.05R
GUAD PASS      SUNNY     34  26  72 SW22G29   30.14R WCI  22
HOBBS          SUNNY     46  23  39 W23G30    30.00R WCI  38
MARFA          SUNNY     41  22  46 W38G46    30.13R WCI  29
MIDLAND AIRPK  SUNNY     51  25  35 NW22G29   29.98R
MIDLAND INTL   SUNNY     51  23  33 NW24G35   29.98R
ODESSA         SUNNY     51  23  33 NW22G32   30.00R
PECOS          NOT AVBL
PRESIDIO       FAIR      51  26  37 W10G22    30.19R
SEMINOLE       SUNNY     47  25  41 NW22      30.00R WCI  40
SNYDER         SUNNY     49  35  58 NW18G28   29.91R
WINK           SUNNY     50  22  33 W12       30.03R
$$
...OTHER STATIONS IN TEXAS...

CITY           SKY/WX    TMP DP  RH WIND       PRES   REMARKS
ABILENE        PTSUNNY   50  38  63 NW25G33   29.84R
AMARILLO       SUNNY     40  34  79 NW13      29.92R WCI  32
AUSTIN         MOSUNNY   62  37  39 NW30G44   29.71R
BROWNSVILLE    SUNNY     71  41  33 NW12      29.89R
CORPUS CHRISTI SUNNY     69  25  19 NW40G51   29.82R
DALLAS FTW     PTSUNNY   54  44  69 NW23G31   29.58R
DEL RIO        SUNNY     63  23  21 W30G43    29.94R
EL PASO        MOSUNNY   43  25  49 NW13G22   30.19R WCI  36
HOUSTON INT    MOSUNNY   62  37  39 W17G29    29.60R
LUBBOCK        SUNNY     47  33  58 NW21G28   29.92R WCI  39
SAN ANGELO     SUNNY     55  32  41 NW24G33   29.91R
SAN ANTONIO    SUNNY     63  29  27 NW29G41   29.78R
WACO           MOSUNNY   57  44  62 NW29G45   29.64R
WICHITA FALLS  NOT AVBL
$$
...OTHER LOCATIONS IN NEW MEXICO...

CITY           SKY/WX    TMP DP  RH WIND       PRES   REMARKS
ALAMAGORDO     CLOUDY    41  23  48 N14G20    30.20R WCI  33
ALBUQUERQUE    MOSUNNY   32  21  64 S5        30.18R WCI  27
CANNON AFB     SUNNY     44  26  48 W9        29.96R WCI  39
CLOVIS         SUNNY     43  28  56 N10       29.96R WCI  37
HOLLOMAN AFB   NOT AVBL
ROSWELL        SUNNY     49  17  28 NW23G40   30.00R
RUIDOSO        CLOUDY    30  14  51 N20G29    30.09R WCI  18
SANTA FE       SUNNY     31  22  69 SW7       30.12R WCI  24
TRUTH OR CONSE SUNNY     39  18  42 NW17G28   30.16S WCI  30
TUCUMCARI      SUNNY     42  27  55 W9        29.96R WCI  37
$$

  • National Weather Service
  • Southern Region Headquarters
  • 819 Taylor Street, Room 10A06
  • Fort Worth, TX 76102
  • Page Author: NWS Fort Worth
  • Web Master: SR-SRH.Webmaster@noaa.gov
  •  
  • Page last modified: 30-Sep-2016 6:36 PM UTC
USA.gov is the U.S. government's official web portal to all federal, state and local government web resources and services.